Hauptseite
METAR-TAF:

METAR-TAF

Flughäfen :

Valley, Wales

Breite: 53-15N, Länge: 004-32W, Höhe: 1 m

Beobachtung

Neuester Wetterbericht von vor 1 Stunde und 17 Minuten, um 00:50 UTC
Wind 30 kt aus Süd
Temperatur 17°C
Luftfeuchtigkeit 94%
Luftdruck 1013 hPa
Sichtweite: 3100 m
Leichtregen

METAR: EGOV 190050Z AUTO 19030KT 3100 -RA OVC003/// 17/16 Q1013

Zeit: 03:07 (02:07 UTC)


TAF: fehlend

Wetterbeobachtungen und Prognosen von mehr als 4000 Flughäfen (METAR und TAF Bericht).

Die verfügbaren Stationen werden durch gelbe und rote Markierungen auf der Karte dargestellt.

Führen Sie die Maus auf sie, um den Namen der Station zu sehen.

Darauf klicken, um die Beobachtung von Wetterbeobachtungen und Prognosen zu sehen.

Um die Karte zu ändern : klicken Sie auf den grünen Tasten mit einem schwarzen Kreuz Zum Vergrößern, auf den grünen Button mit einem Gedankenstrich zu verkleinern, oder auf die grünen Pfeile für benachbarte Karten.


METAR-TAF: